This is the latest recevied weather packets stored in our database for station/object DELTON-WX. If no packets are shown the sender has not sent any weather packets the latest 10 day(s).
| Time | Temp. | Humidity | Pressure | Rain* | Wind** | Luminosity | Snow |
|---|---|---|---|---|---|---|---|
| 1777649461 | 6.11° C | 66% | 982.2 hPa | 0 mm | - | - | - |
| 1777648545 | 6.67° C | 66% | 982.2 hPa | 0 mm | - | - | - |
| 1777647676 | 6.67° C | 66% | 982.2 hPa | 0 mm | - | - | - |
| 1777646745 | 6.67° C | 75% | 981.2 hPa | 0 mm | - | - | - |
| 1777645864 | 6.67° C | 67% | 981.9 hPa | 0 mm | - | - | - |
| 1777644945 | 6.11° C | 67% | 981.9 hPa | 0 mm | - | - | - |
| 1777644085 | 6.11° C | 67% | 981.9 hPa | 0 mm | - | - | - |
| 1777643145 | 5.56° C | 71% | 981.3 hPa | 0 mm | - | - | - |
| 1777642263 | 5° C | 71% | 981.3 hPa | 0 mm | - | - | - |
| 1777641345 | 5° C | 71% | 981.3 hPa | 0 mm | - | - | - |
| 1777640475 | 4.44° C | 71% | 981.3 hPa | 0 mm | - | - | - |
| 1777639545 | 4.44° C | 82% | 980.9 hPa | 0 mm | - | - | - |
| 1777638662 | 4.44° C | 89% | 981 hPa | 0 mm | - | - | - |
| 1777637746 | 3.89° C | 89% | 981 hPa | 0 mm | - | - | - |
| 1777636878 | 3.89° C | 89% | 981 hPa | 0 mm | - | - | - |
| 1777635945 | 3.89° C | 93% | 980.3 hPa | 0 mm | - | - | - |
| 1777635062 | 3.33° C | 96% | 980.4 hPa | 0 mm | - | - | - |
| 1777634145 | 3.33° C | 96% | 980.4 hPa | 0 mm | - | - | - |
| 1777633274 | 2.78° C | 96% | 980.4 hPa | 0 mm | - | - | - |
| 1777632345 | 2.78° C | 95% | 980.1 hPa | 0 mm | - | - | - |
| 1777631464 | 2.78° C | 93% | 980.8 hPa | 0 mm | - | - | - |
| 1777630545 | 3.33° C | 93% | 980.8 hPa | 0 mm | - | - | - |
| 1777629679 | 3.33° C | 93% | 980.8 hPa | 0 mm | - | - | - |
| 1777628745 | 3.33° C | 94% | 981.2 hPa | 0 mm | - | - | - |
| 1777627861 | 2.78° C | 91% | 981 hPa | 0 mm | - | - | - |
* Rain latest hour (hover to see other rain measurements)
** Current wind speed in m/s (hover to see current wind gust speed)